Temp
25 25 24 23 23 22 22 22 22 21 21 21 21 21 21 21 21 21 20 20 21 21 21 21 20 21 21 21 21 21 22 22 22 22 22 21 21 21 21 21 21 20 20
25 24 24 23 22 22 22 22 22 21 21 21 21 20 20 21 21 20 20 21 21 21 21 21 21 21 21 21 21 21 22 21 21 22 21 21 21 21 21 21 20 20 20
25 23 23 23 22 22 22 21 21 22 21 20 21 20 20 20 20 21 20 20 20 20 21 21 21 21 21 21 21 21 22 22 22 22 21 21 21 21 21 21 20 19 19
26 24 23 22 22 22 22 22 21 21 21 21 21 20 20 20 20 20 20 20 20 20 21 21 21 21 21 21 21 21 22 22 22 22 22 21 21 21 21 21 20 20 20
25 24 22 22 22 22 22 22 21 21 21 21 21 21 21 21 21 21 20 20 20 20 21 21 21 21 21 21 21 21 22 22 22 22 22 22 21 21 20 19 19 20 21
25 23 22 22 22 22 22 22 22 22 22 22 22 22 22 21 21 21 22 22 21 22 21 21 21 21 21 21 21 21 21 22 22 22 22 22 22 21 21 19 19 20 19
25 23 22 22 22 22 21 21 22 22 23 23 23 22 22 23 22 22 22 22 22 22 22 22 22 21 21 21 21 21 21 21 22 22 22 22 22 21 20 19 19 19 18
25 23 23 22 22 22 21 22 22 22 22 22 23 23 22 22 23 22 22 22 22 22 22 22 21 21 21 21 21 21 21 20 20 22 21 22 21 20 19 19 18 18 18
25 25 23 23 23 22 22 22 22 22 22 22 23 23 23 22 22 22 22 22 21 21 21 21 21 21 21 21 21 21 20 20 20 21 21 20 21 21 19 18 18 18 18
24 24 24 24 24 22 22 22 22 22 22 22 21 22 22 22 21 22 21 21 21 21 21 21 21 21 20 20 20 20 20 20 20 20 21 20 19 20 19 18 18 18 18
24 24 23 23 23 23 23 22 22 22 21 21 20 20 20 20 20 20 21 21 20 20 21 21 21 20 20 19 19 19 19 19 20 20 20 19 18 20 19 18 18 17 18
22 22 22 22 21 21 22 21 21 20 20 20 19 18 18 19 19 19 19 19 20 20 20 21 21 20 20 19 19 19 19 19 19 20 19 19 20 20 19 18 18 18 18
21 21 21 21 20 20 20 20 19 19 19 18 18 17 17 17 17 17 18 18 18 19 19 19 20 20 20 20 19 18 18 18 19 19 20 19 20 20 19 19 17 17 18
20 20 20 20 20 19 19 19 18 18 18 17 17 16 16 15 16 16 16 16 17 17 18 18 18 19 20 20 20 20 18 18 18 18 18 19 20 20 20 19 17 17 18
21 20 19 19 19 19 18 18 17 16 16 16 16 16 15 15 15 15 15 15 16 16 16 16 17 18 18 20 20 20 20 18 18 19 19 19 19 20 19 19 18 17 18
21 20 19 18 18 18 17 16 16 16 15 15 15 15 15 14 14 14 14 14 14 14 15 15 15 16 17 18 19 20 19 19 19 18 18 18 18 19 20 18 18 18 17
20 19 18 18 18 17 16 16 16 15 15 15 15 14 14 13 13 13 13 13 14 14 14 14 14 15 16 16 17 19 19 19 19 18 17 18 18 18 19 19 18 18 17
19 19 18 17 17 17 16 16 16 15 15 14 14 14 13 13 13 13 13 13 13 13 13 13 14 14 15 15 15 16 17 19 19 20 18 17 17 18 18 19 18 18 18
19 19 17 17 16 16 16 16 15 15 14 14 14 13 13 13 13 12 12 12 13 12 12 13 12 13 13 14 14 15 16 17 18 18 19 18 17 17 18 19 19 18 18
18 17 18 17 16 16 15 15 14 14 14 14 13 13 12 12 12 12 12 12 12 12 12 12 12 12 12 12 12 13 14 16 16 17 17 19 18 16 17 18 19 18 18
17 17 17 16 16 15 14 14 13 13 14 13 13 13 12 12 12 12 12 12 12 12 12 11 11 11 11 12 11 11 12 12 13 14 16 16 17 16 17 17 18 18 18
17 17 17 16 15 14 13 13 12 13 13 13 13 13 12 12 12 12 12 12 12 12 12 11 11 11 11 11 10 10 9 11 12 14 15 17 16 16 16 17 17 18 18
17 17 16 16 15 14 13 13 12 12 12 13 13 12 12 12 12 12 12 12 12 12 11 11 11 11 10 10 10 9 8 9 10 11 12 13 15 17 17 16 17 16 17
17 17 16 15 15 14 13 13 12 12 12 12 12 12 12 12 12 12 12 12 12 11 11 11 11 11 10 10 10 9 9 8 8 9 11 12 11 15 16 16 17 17 17
17 16 16 15 15 14 14 13 12 12 12 12 12 12 12 12 12 12 12 11 11 11 11 11 11 10 10 10 9 9 7 7 8 8 9 10 11 12 15 16 17 17 17
17 16 15 15 15 14 13 13 12 12 12 12 12 12 12 12 11 11 11 11 11 11 11 10 10 10 10 10 9 8 7 6 7 8 8 9 9 10 9 16 17 17 17
Height
823 823 824 824 823 823 823 823 822 821 820 820 820 819 820 819 819 818 818 818 817 818 818 818 817 817 817 818 818 818 819 819 820 820 820 821 822 823 825 826 826 827 827
821 822 823 824 825 824 824 824 823 822 821 821 821 820 820 820 820 819 819 819 819 818 818 818 818 818 818 819 819 819 818 820 821 822 822 822 823 825 826 827 827 829 829
825 824 823 824 825 825 825 824 824 823 822 822 822 822 822 821 821 820 820 819 819 819 819 819 818 819 818 818 818 819 819 821 821 823 824 824 825 826 827 828 828 830 831
825 823 825 825 826 826 826 825 825 825 824 824 823 823 823 822 822 822 821 820 819 819 818 818 818 818 818 819 820 819 820 821 822 824 826 827 827 828 828 829 829 831 831
825 826 827 827 827 827 827 826 826 826 826 825 825 824 823 822 822 821 821 821 820 819 818 817 817 817 818 819 820 821 820 821 823 825 827 828 829 829 829 830 831 830 833
828 829 829 828 828 828 828 828 827 827 827 826 825 825 825 824 823 822 821 821 820 819 818 817 817 816 817 817 818 820 821 821 822 825 828 829 829 830 830 830 832 831 831
830 830 830 830 829 829 829 830 829 829 828 828 827 827 826 826 825 823 822 821 820 818 817 816 815 816 816 816 816 817 819 820 820 823 827 829 829 829 830 830 831 832 833
831 830 831 831 831 831 831 831 831 831 830 829 829 828 828 827 826 824 823 821 819 819 817 815 814 814 813 814 815 816 818 818 820 818 822 828 829 830 830 830 831 831 833
832 832 832 832 832 832 833 832 832 832 831 831 830 829 829 827 827 825 824 822 820 819 817 816 815 813 812 811 812 814 814 816 817 818 816 824 828 827 828 829 830 831 832
834 833 834 834 835 833 833 834 834 833 833 832 831 829 829 827 826 825 824 822 821 819 817 816 815 813 811 810 809 810 812 813 814 813 813 820 827 827 826 826 828 830 831
834 835 835 835 836 835 835 835 835 834 834 833 832 830 829 828 826 825 823 822 820 819 818 816 815 813 811 811 811 810 810 811 811 810 810 818 823 823 822 822 824 827 829
836 836 836 836 835 836 835 835 835 834 834 833 832 831 829 828 827 825 824 822 820 819 817 816 815 814 812 812 811 811 810 810 810 810 811 812 811 816 817 817 820 821 824
835 836 836 836 836 835 834 834 834 834 835 833 832 830 829 828 827 826 824 823 821 819 818 816 814 814 812 810 809 809 809 809 809 810 810 810 812 810 813 815 813 814 818
834 834 835 835 835 835 835 835 834 834 834 833 832 831 829 827 826 826 824 823 821 820 818 816 813 811 810 809 808 808 808 807 807 807 808 809 810 808 807 814 814 809 810
833 833 832 833 834 835 835 835 835 834 833 832 832 831 829 828 827 826 824 823 822 820 819 816 814 812 809 807 807 805 804 805 805 805 804 804 806 805 806 806 813 813 805
831 831 831 832 833 834 835 835 835 834 834 833 832 832 830 829 828 826 825 823 821 820 819 818 816 813 810 807 804 803 802 801 802 802 801 801 801 802 801 805 805 811 811
829 829 829 830 832 833 834 834 834 833 833 832 832 832 830 829 828 827 825 824 822 820 818 817 815 813 811 807 805 801 799 798 796 797 797 796 796 797 798 798 804 803 810
826 827 827 828 830 831 832 833 833 833 832 832 832 831 830 829 827 826 826 824 822 821 819 816 814 813 810 808 804 801 797 794 793 791 790 791 791 791 793 794 798 799 804
824 825 825 827 828 830 831 832 832 832 831 831 831 830 829 828 827 826 825 823 822 819 818 816 815 813 810 808 804 799 795 791 789 786 782 783 785 784 785 788 791 796 797
821 822 824 825 827 828 829 830 830 830 830 829 829 828 827 827 826 824 823 822 820 819 817 815 813 812 810 807 803 798 794 788 784 782 779 776 776 778 780 781 784 789 792
819 820 821 823 824 826 827 828 828 828 828 828 827 827 826 825 824 822 820 819 818 817 815 814 811 809 808 806 801 797 791 786 779 778 775 772 768 770 774 774 776 780 785
816 818 818 820 822 823 825 826 827 827 826 826 826 825 824 823 821 820 819 818 816 814 813 812 811 808 806 805 802 798 788 784 780 773 769 765 763 765 766 770 769 772 776
811 813 816 818 819 820 822 824 825 825 824 824 823 823 822 820 819 818 816 815 814 813 812 810 809 807 803 802 802 801 795 786 782 773 767 763 761 757 758 760 763 765 768
806 809 812 814 816 817 819 820 822 822 822 822 821 820 818 818 816 815 814 813 811 810 808 807 805 803 801 797 794 795 794 792 788 771 761 759 756 754 749 751 755 758 760
799 804 807 810 812 814 816 817 819 819 819 819 818 817 816 815 814 812 811 809 808 806 804 802 801 799 797 794 790 788 786 785 784 779 765 751 752 749 745 745 746 752 752
793 798 802 806 808 810 812 814 814 815 815 815 814 813 812 811 810 809 808 806 804 802 800 798 795 793 790 787 784 783 781 782 778 774 767 756 755 745 745 739 739 744 742
Wind_Speed
11 15 14 12 13 13 14 15 15 16 16 14 14 13 15 16 14 13 12 11 11 9 9 9 9 7 7 7 7 6 5 4 2 4 6 7 6 8 10 10 10 11 13
17 13 12 12 11 11 11 13 13 16 16 15 15 15 14 16 17 14 13 12 12 12 11 10 9 8 5 6 6 6 6 2 4 4 5 7 7 9 11 8 12 12 14
11 19 14 12 11 11 12 14 14 16 17 17 17 17 17 16 17 17 14 14 12 13 12 11 10 9 6 3 5 6 5 5 2 2 7 6 7 9 9 9 12 13 13
16 14 12 12 12 13 14 17 18 18 19 19 19 18 17 17 17 17 16 14 12 12 13 10 11 10 6 4 4 4 5 5 4 7 5 4 7 6 6 8 9 10 6
15 13 12 11 12 12 14 17 18 19 19 19 18 18 18 18 17 18 17 16 14 13 12 11 10 8 4 5 4 2 4 6 8 5 2 5 5 6 8 7 9 5 1
13 14 14 15 16 15 16 17 19 19 19 20 20 20 21 19 19 19 19 18 16 15 14 12 10 7 5 5 5 5 3 2 6 4 3 2 3 5 6 7 6 4 3
12 13 17 16 16 16 18 17 19 19 21 21 21 20 20 22 20 19 18 19 17 15 13 12 10 8 6 5 7 9 8 5 3 3 6 7 6 7 6 5 5 3 5
11 14 18 18 17 18 18 18 18 19 20 21 19 18 14 16 19 17 19 21 18 17 17 13 11 8 5 5 7 12 12 8 5 6 3 4 6 6 6 6 6 5 5
13 13 14 14 16 17 19 17 19 19 18 18 17 15 16 12 14 16 16 21 20 20 19 17 14 10 6 6 9 13 17 14 10 7 4 5 12 10 7 10 7 6 4
12 13 13 12 13 15 15 16 15 16 16 15 15 13 15 11 13 14 16 17 18 19 19 17 18 16 11 8 8 13 16 15 12 13 12 12 11 10 11 13 9 6 6
13 13 11 13 10 11 11 12 13 12 13 14 16 15 14 14 15 16 14 17 15 16 17 14 17 16 14 8 8 11 14 15 12 10 12 17 20 16 15 15 12 9 6
10 11 11 11 10 9 9 10 11 10 13 13 15 17 15 15 14 16 14 16 15 15 14 14 16 13 12 11 10 11 15 16 14 15 17 21 22 20 18 19 17 13 8
11 10 11 9 11 9 10 9 10 11 13 13 15 16 15 14 16 16 17 17 17 16 15 17 16 14 16 13 14 12 16 17 18 16 18 21 26 21 17 23 21 18 11
10 10 9 9 9 10 9 10 9 10 11 13 13 16 16 18 18 19 18 20 20 20 19 19 19 18 17 17 15 14 17 18 19 20 23 23 25 20 19 22 23 22 14
11 9 9 8 8 8 8 7 8 9 10 11 13 14 15 17 17 18 18 18 19 19 21 22 20 22 22 21 19 17 15 16 19 22 22 18 26 23 19 22 22 20 20
9 8 7 6 6 4 4 5 5 9 9 10 11 12 13 15 15 16 16 16 16 18 18 19 21 24 25 24 24 20 18 21 24 21 25 28 24 22 19 22 25 22 20
9 8 5 5 4 2 3 5 6 7 8 9 9 10 12 13 13 14 14 14 15 16 16 18 19 20 24 25 25 25 24 23 25 26 26 28 23 27 24 24 25 25 23
10 9 6 4 3 1 3 4 4 6 8 8 9 10 12 13 13 14 13 13 15 15 15 16 19 22 22 24 27 27 28 27 29 33 31 29 30 25 28 27 29 27 27
10 9 7 5 3 1 1 2 3 5 7 7 8 9 11 12 13 14 14 14 16 16 17 18 19 20 23 25 27 29 32 29 26 33 37 35 38 26 29 31 33 33 30
12 11 9 7 4 2 1 2 3 5 6 8 8 8 12 11 13 14 14 14 16 17 17 19 20 20 19 24 25 26 30 32 30 28 35 39 37 34 28 33 35 37 30
13 12 11 9 6 3 2 2 3 6 8 8 9 8 11 12 14 15 16 16 16 16 18 18 20 23 21 18 23 24 26 32 38 33 31 33 36 33 33 27 36 38 38
17 16 12 10 8 5 3 2 3 6 9 9 8 10 10 11 15 15 16 16 17 19 18 19 20 22 21 21 17 20 7 19 28 28 31 33 32 33 32 34 31 37 41
19 18 14 11 9 7 4 3 3 6 7 9 9 11 10 14 14 16 16 17 18 18 21 20 21 21 22 22 19 13 5 7 20 40 36 34 33 36 33 33 32 36 39
22 17 17 13 11 9 7 5 3 6 8 9 11 12 13 15 16 14 16 18 18 20 19 21 21 24 25 22 24 20 17 22 12 14 31 30 31 35 35 34 37 33 39
23 21 17 14 13 11 8 5 6 7 8 10 11 13 15 15 14 17 18 19 20 21 22 22 23 25 28 28 25 21 19 22 26 17 14 20 26 33 38 37 36 40 39
24 23 20 18 14 12 8 8 9 9 10 10 12 15 14 15 17 18 19 20 21 24 25 24 28 27 28 29 28 26 21 14 22 20 12 16 15 35 37 38 38 37 42
Wind_Direction
88 68 57 58 56 50 46 42 35 37 33 35 36 34 32 30 26 24 20 15 10 8 6 5 6 13 26 12 357 4 13 26 69 122 109 107 109 110 108 108 108 109 107
122 85 60 55 51 44 38 33 30 37 36 43 41 37 38 32 28 26 21 16 9 8 2 354 350 351 349 358 20 25 19 45 97 111 105 118 111 107 114 114 122 113 111
82 78 63 58 45 43 45 40 42 42 45 48 48 41 37 32 29 27 23 17 14 7 358 355 351 339 328 0 352 15 23 45 78 111 114 93 120 115 115 120 122 112 106
52 50 64 61 54 55 59 57 59 53 50 52 50 44 38 35 29 28 25 21 17 10 8 0 354 346 329 311 330 12 43 72 90 117 95 152 132 125 127 133 130 120 107
50 30 71 71 62 73 70 73 68 62 55 52 47 44 42 41 37 31 24 18 18 10 5 1 356 352 334 307 289 323 49 77 115 99 79 116 153 153 143 134 128 125 240
77 58 80 80 75 82 78 75 73 68 61 55 52 48 45 42 39 37 35 25 15 10 7 1 354 348 334 283 252 253 244 127 156 48 36 162 230 191 170 150 161 156 158
76 77 79 79 85 83 82 77 74 69 61 56 54 50 44 36 32 31 30 23 22 14 7 3 354 343 329 287 249 228 229 209 198 217 321 321 270 196 175 172 184 176 137
87 104 86 76 82 83 83 81 72 64 60 55 50 45 35 36 27 20 19 14 18 16 8 1 353 337 314 288 256 232 221 216 232 196 34 289 254 219 189 183 181 170 156
81 81 102 85 88 83 74 72 65 55 49 44 38 39 31 24 20 17 8 7 12 13 9 13 360 338 315 282 252 237 227 231 233 228 211 304 274 244 196 175 183 189 187
87 79 85 87 83 77 65 54 57 47 39 33 24 26 25 18 1 21 2 3 7 4 5 359 360 355 320 291 256 235 231 240 253 243 239 268 255 228 191 183 189 191 189
81 89 82 84 77 74 68 54 40 45 30 21 19 14 18 10 359 4 353 3 0 360 352 355 353 359 358 328 269 243 237 239 241 213 211 221 240 234 197 195 199 183 202
98 75 79 70 68 65 67 48 42 24 26 18 18 15 19 10 9 0 6 358 356 354 350 352 348 1 354 329 297 266 249 241 222 216 207 206 210 222 204 200 198 190 196
103 90 72 67 57 58 59 44 40 18 27 16 19 16 18 13 14 8 3 2 359 357 351 347 345 340 332 323 304 285 256 246 232 221 227 229 224 218 217 209 197 187 186
113 99 87 68 58 40 40 41 18 27 22 15 15 17 13 11 13 8 3 0 359 356 353 349 341 334 330 318 301 303 276 251 233 236 249 235 231 229 212 214 207 188 189
129 119 98 82 56 42 15 26 17 13 18 12 15 15 6 7 9 359 3 359 358 355 350 343 337 333 328 318 311 287 277 258 262 266 253 240 236 232 218 199 215 207 179
141 122 117 102 77 40 32 15 23 4 13 12 11 10 358 7 5 360 358 358 358 353 348 341 337 332 328 323 313 313 272 272 263 273 267 242 236 235 228 211 210 211 203
153 146 153 127 94 45 19 16 18 354 13 5 4 2 356 5 1 0 355 354 356 351 345 343 339 334 329 326 317 306 298 274 272 269 268 253 238 234 231 218 219 205 213
170 166 170 141 122 74 18 13 356 342 360 352 360 353 354 358 355 355 352 351 351 353 348 344 340 335 327 322 316 314 300 288 269 277 264 257 236 236 229 225 217 211 210
188 175 174 168 157 94 9 348 338 335 347 338 346 343 349 349 345 345 347 346 345 347 347 343 336 332 326 318 311 306 301 299 286 270 268 262 252 237 235 228 222 220 212
194 192 182 177 179 180 159 301 331 330 329 325 332 334 338 335 335 337 335 334 335 335 337 335 332 329 325 321 318 309 303 298 291 284 264 263 255 245 233 224 224 220 216
202 205 197 190 184 187 173 318 326 326 322 318 319 315 328 323 326 327 327 328 329 328 329 331 327 324 320 320 321 324 315 306 299 295 285 261 248 240 235 226 223 220 215
208 212 199 201 189 191 186 269 295 308 308 307 309 315 310 313 320 320 319 322 328 325 324 320 315 315 312 313 326 321 318 311 301 298 290 266 256 240 235 231 218 221 215
215 208 200 203 187 198 194 235 284 303 315 313 314 308 306 313 314 314 315 319 318 318 319 315 315 311 311 309 304 297 309 303 318 302 299 299 271 243 235 226 224 212 208
211 214 207 205 205 201 206 218 264 297 296 303 302 307 311 312 309 308 311 309 311 310 309 311 308 303 301 297 300 287 285 292 299 299 295 290 298 259 236 225 220 212 199
202 208 205 208 209 210 208 231 247 261 275 285 296 304 304 308 309 308 307 308 309 306 306 300 303 301 295 292 290 299 298 299 294 279 288 295 299 295 243 229 217 212 200
200 205 201 207 210 208 211 233 246 256 268 283 290 293 302 305 309 307 304 304 305 305 301 300 301 297 296 289 292 289 278 289 294 286 276 281 286 279 295 233 219 212 195